Location: Carrer del Canonge
(41.4901°N, 2.2931°E)
Time: 14:55:50
(UTC+00:00)

Cosmos 1844 Rocket - Pass Details

Date: 18 September 2020
Orbit: 823 x 846 km, 71.0° (Epoch: 29 October)

Event Time Altitude Azimuth Distance (km) Brightness Sun altitude
Rises 19:36:06 0° 193° (SSW) 3,342 5.7 -19.5°
Reaches altitude 10° 19:38:32 10° 190° (S) 2,414 5.0 -19.9°
Maximum altitude 19:44:00 65° 110° (ESE) 905 2.5 -20.8°
Drops below altitude 10° 19:49:31 10° 30° (NNE) 2,438 5.0 -21.8°
Sets 19:51:58 0° 27° (NNE) 3,378 5.8 -22.2°
